Home > Time Zones > World Clock > Weather > Iran > Kerman > Past weeks

Flag for Iran Weather past 2 weeks in Kerman, Iran

Now
41 °F

Sunny.


Feels Like: 38 °F
Forecast: 28 / 56 °F
Wind: 5 mph from East

Location: Kerman Airport

Current Time: Mar 6, 2015 at 8:41:54 AM

Latest Report: Mar 6, 2015 at 7:30 AM


Visibility: 10 mi

Pressure: 30.12 "Hg

Humidity: 45%

Dew point: 21 °F

Location of KermanLocation

Historic Weather in Kerman — Graph

°F

Kerman temperature yesterday

Maximum temperature yesterday: 63 °F (at 2:55 PM)
Minimum temperature yesterday: 32 °F (at 6:30 AM)
Average temperature yesterday: 50 °F

Past Weeks' High & Low Weather Summary

 TemperatureHumidityPressure
High63 °F (Feb 20, 2:00 PM)100% (Feb 19, 9:30 PM)30.24 "Hg (Feb 19, 9:30 PM)
Low21 °F (Mar 1, 4:30 AM)6% (Mar 4, 4:30 PM)29.77 "Hg (Feb 21, 2:30 PM)
Average44 °F50%30.00 "Hg
* Reported Feb 19 7:30 AM — Mar 6 7:30 AM, Kerman, Weather by CustomWeather, © 2015

Note: Actual official high and low records may vary slightly from our data, if they occured in-between our weather recording intervals... More about our weather records

Advertising

Kerman weather history for previous 24 hours

 ConditionsComfort  
Time TempWeatherWind HumidityBarometerVisibility
7:30 AM
Fri, Mar 6
41 °FSunny.5 mph45%30.12 "Hg10 mi
6:30 AM30 °FClear.5 mph64%30.09 "Hg10 mi
5:30 AM30 °FClear.7 mph64%30.07 "Hg10 mi
4:30 AM32 °FClear.5 mph60%30.07 "Hg10 mi
3:30 AM32 °FClear.5 mph60%30.07 "Hg10 mi
2:30 AM36 °FClear.9 mph52%30.07 "Hg10 mi
1:30 AM36 °FClear.7 mph48%30.07 "Hg10 mi
12:30 AM37 °FClear.7 mph45%30.07 "Hg10 mi
11:30 PM
Thu, Mar 5
37 °FClear.7 mph38%30.07 "Hg10 mi
10:30 PM39 °FClear.7 mph33%30.07 "Hg10 mi
9:30 PM45 °FClear.7 mph29%30.07 "Hg10 mi
8:30 PM50 °FClear.7 mph22%30.07 "Hg10 mi
7:30 PM48 °FClear.7 mph23%30.04 "Hg10 mi
6:30 PM54 °FClear.7 mph18%30.01 "Hg10 mi
5:30 PM59 °FSunny.12 mph16%29.98 "Hg10 mi
4:30 PM63 °FSunny.14 mph11%29.98 "Hg10 mi
3:30 PM63 °FSunny.12 mph14%29.98 "Hg10 mi
2:55 PM63 °FSunny.12 mph15%29.98 "Hg10 mi
2:30 PM61 °FSunny.12 mph16%29.98 "Hg10 mi
1:30 PM59 °FSunny.12 mph18%30.01 "Hg10 mi
1:00 PM59 °FSunny.14 mph16%30.01 "Hg10 mi
12:30 PM59 °FSunny.14 mph16%30.01 "Hg10 mi
12:00 PM57 °FSunny.12 mph23%30.04 "Hg10 mi
11:30 AM55 °FSunny.14 mph24%30.04 "Hg10 mi
10:30 AM54 °FSunny.12 mph26%30.07 "Hg10 mi
10:00 AM54 °FSunny.12 mph28%30.07 "Hg10 mi
9:30 AM52 °FSunny.12 mph30%30.07 "Hg10 mi
8:30 AM52 °FSunny.7 mph30%30.07 "Hg10 mi
8:00 AM46 °FSunny.5 mph40%30.07 "Hg10 mi
Weather by CustomWeather, © 2015

See weather overviewHow to use our weather pages